EW4609 Weather Reports


time (UTC)temp
F
wind
direction
speed
knots
gust
knots
rain 1hr
in
rain 24hr
in
rain mn
in
humidity
%
barometer
mb
20260906224536 96 154 0.0 0.0 0.00 0.00 0.00 39 1009.9
20260906223029 97 155 0.0 0.0 0.00 0.00 0.00 39 1010.1
20260906221530 97 155 0.0 0.0 0.00 0.00 0.00 40 1010.0
20260906220023 96 155 0.0 0.0 0.00 0.00 0.00 40 1010.1
20260906214520 97 154 0.0 0.0 0.00 0.00 0.00 39 1010.2
20260906213012 97 154 0.0 0.0 0.00 0.00 0.00 40 1010.5
20260906211509 97 155 0.0 0.0 0.00 0.00 0.00 40 1010.7
20260906210003 96 153 0.0 0.0 0.00 0.00 0.00 41 1010.9
20260906204545 96 153 0.0 0.0 0.00 0.00 0.00 42 1011.1
20260906203039 97 155 0.0 0.0 0.00 0.00 0.00 41 1011.2
20260906201521 96 155 0.0 0.0 0.00 0.00 0.00 41 1011.4
20260906200032 96 155 0.0 0.0 0.00 0.00 0.00 42 1011.5
20260906194511 95 155 0.0 0.0 0.00 0.00 0.00 41 1011.8
20260906193007 95 155 0.0 0.0 0.00 0.00 0.00 42 1011.9
20260906191503 95 155 0.0 0.0 0.00 0.00 0.00 42 1012.1
20260906190058 95 157 0.0 0.0 0.00 0.00 0.00 42 1012.2
20260906184606 94 157 0.0 0.0 0.00 0.00 0.00 44 1012.3
20260906183059 93 157 0.0 0.0 0.00 0.00 0.00 44 1012.5
20260906181537 93 157 0.0 0.0 0.00 0.00 0.00 44 1012.7
20260906180036 93 157 0.0 0.0 0.00 0.00 0.00 44 1013.0
20260906174505 92 157 0.0 0.0 0.00 0.00 0.00 44 1013.2
20260906173006 92 157 0.0 0.0 0.00 0.00 0.00 43 1013.5
20260906171606 91 157 0.0 0.0 0.00 0.00 0.00 42 1013.7
20260906170056 91 157 0.0 0.0 0.00 0.00 0.00 41 1013.9
20260906164555 90 157 0.0 0.0 0.00 0.00 0.00 40 1014.0
20260906163050 90 157 0.0 0.0 0.00 0.00 0.00 36 1014.1
20260906161539 89 157 0.0 0.0 0.00 0.00 0.00 32 1014.1
20260906160047 88 157 0.0 0.0 0.00 0.00 0.00 25 1014.2
20260906154520 87 157 0.0 0.0 0.00 0.00 0.00 18 1014.1
20260906153014 86 157 0.0 0.0 0.00 0.00 0.00 13 1014.1
20260906151509 85 157 0.0 0.0 0.00 0.00 0.00 6 1013.9
20260906150019 84 167 0.0 0.0 0.00 0.00 0.00 3 1013.8
20260906144502 83 167 0.0 0.0 0.00 0.00 0.00 1 1013.7
20260906143101 82 167 0.0 0.0 0.00 0.00 0.00 1 1013.8
20260906141601 82 167 0.0 0.0 0.00 0.00 0.00 1 1013.7
20260906140050 81 167 0.0 0.0 0.00 0.00 0.00 1 1013.8
20260906134544 80 167 0.0 0.0 0.00 0.00 0.00 1 1013.7
20260906133023 79 167 0.0 0.0 0.00 0.00 0.00 1 1013.7
20260906131526 78 167 0.0 0.0 0.00 0.00 0.00 1 1013.7
20260906130057 78 167 0.0 0.0 0.00 0.00 0.00 1 1013.7
20260906124552 78 167 0.0 0.0 0.00 0.00 0.00 1 1013.4
20260906123034 78 167 0.0 0.0 0.00 0.00 0.00 1 1013.4
20260906121529 78 167 0.0 0.0 0.00 0.00 0.00 1 1013.2
20260906120026 78 167 0.0 0.0 0.00 0.00 0.00 1 1013.1
20260906114534 78 167 0.0 0.0 0.00 0.00 0.00 1 1012.9
20260906113016 78 167 0.0 0.0 0.00 0.00 0.00 1 1012.9
20260906111513 78 167 0.0 0.0 0.00 0.00 0.00 1 1012.7
20260906110013 78 167 0.0 0.0 0.00 0.00 0.00 1 1012.7
20260906104513 78 167 0.0 0.0 0.00 0.00 0.00 1 1012.7
20260906103049 78 167 0.0 0.0 0.00 0.00 0.00 1 1012.7
20260906101545 79 167 0.0 0.0 0.00 0.00 0.00 1 1012.4
20260906100044 79 167 0.0 0.0 0.00 0.00 0.00 1 1012.3
20260906094602 79 167 0.0 0.0 0.00 0.00 0.00 1 1012.1
20260906093037 80 167 0.0 0.0 0.00 0.00 0.00 1 1011.9
20260906091530 80 167 0.0 0.0 0.00 0.00 0.00 1 1011.9
20260906090024 80 167 0.0 0.0 0.00 0.00 0.00 1 1011.9
20260906084517 81 167 0.0 0.0 0.00 0.00 0.00 1 1011.9
20260906083057 81 167 0.0 0.0 0.00 0.00 0.00 2 1011.8
20260906081555 81 167 0.0 0.0 0.00 0.00 0.00 4 1011.8
20260906080046 81 167 0.0 0.0 0.00 0.00 0.00 4 1011.9
20260906074534 81 167 0.0 0.0 0.00 0.00 0.00 5 1012.0
20260906073034 82 167 0.0 0.0 0.00 0.00 0.00 5 1012.1
20260906071529 82 167 0.0 0.0 0.00 0.00 0.00 6 1011.9
20260906070026 82 167 0.0 0.0 0.00 0.00 0.00 9 1012.2
20260906064525 82 167 0.0 0.0 0.00 0.00 0.00 10 1012.1
20260906063031 83 167 0.0 0.0 0.00 0.00 0.00 12 1012.1
20260906061533 83 167 0.0 0.0 0.00 0.00 0.00 16 1012.0
20260906060008 83 167 0.0 0.0 0.00 0.00 0.00 20 1012.2
20260906054506 84 167 0.0 0.0 0.00 0.00 0.00 26 1012.2
20260906053003 84 167 0.0 0.0 0.00 0.00 0.00 31 1012.2
20260906051559 85 167 0.0 0.0 0.00 0.00 0.00 35 1012.1
20260906050114 86 167 0.0 0.0 0.00 0.00 0.00 38 1012.2
20260906044554 86 167 0.0 0.0 0.00 0.00 0.00 40 1012.2
20260906043047 86 167 0.0 0.0 0.00 0.00 0.00 42 1012.1
20260906041546 87 167 0.0 0.0 0.00 0.00 0.00 43 1011.8
20260906040024 87 167 0.0 0.0 0.00 0.00 0.00 45 1011.9
20260906034515 87 167 0.0 0.0 0.00 0.00 0.00 46 1012.0
20260906033059 87 167 0.0 0.0 0.00 0.00 0.00 46 1012.0
20260906031601 88 167 0.0 0.0 0.00 0.00 0.00 47 1012.0
20260906030052 88 167 0.0 0.0 0.00 0.00 0.00 48 1012.1
20260906024545 88 167 0.0 0.0 0.00 0.00 0.00 48 1011.9
20260906023048 89 167 0.0 0.0 0.00 0.00 0.00 48 1011.7
20260906021537 89 167 0.0 0.0 0.00 0.00 0.00 49 1011.4
20260906020048 90 167 0.0 0.0 0.00 0.00 0.00 49 1011.1
20260906014533 90 167 0.0 0.0 0.00 0.00 0.00 49 1010.9
20260906013005 91 167 0.0 0.0 0.00 0.00 0.00 49 1010.6
20260906011504 93 193 0.0 0.0 0.00 0.00 0.00 47 1010.3
20260906010045 94 198 0.0 0.0 0.00 0.00 0.00 43 1010.1
20260906004540 95 199 0.0 0.0 0.00 0.00 0.00 41 1010.0
20260906003038 95 199 0.0 0.0 0.00 0.00 0.00 40 1010.0
20260906001533 95 199 0.0 0.0 0.00 0.00 0.00 40 1010.0
20260906000027 96 199 0.0 0.0 0.00 0.00 0.00 39 1009.9
20260905234523 97 200 0.0 0.0 0.00 0.00 0.00 38 1009.7
20260905233018 97 199 0.0 0.0 0.00 0.00 0.00 38 1009.7
20260905231514 96 200 0.0 0.0 0.00 0.00 0.00 38 1009.8
20260905230053 96 200 0.0 0.0 0.00 0.00 0.00 39 1009.6